[[{"header":{"parameterUnit":"m.s-1","parameterCategory":1,"la1":30.2991,"la2":30.254,"lo1":-89.0895,"lo2":-89.0444,"dx":0.0017,"dy":0.0017,"nx":28,"ny":28,"refTime":"2023-01-27T15:00:00:Z","depth":0,"parameterNumber":2,"parameterNumberName":"U-component_of_WINDS"},"data":[0,0,0,0,0,0,0,0,0,0,0,0,0,0,0,0,0,0,0,0,0,0,0,0,0,0,0,0,0,0,0,0,0,0,0,0,0,0,0,0,0,0,0,0,0,0,0,0,0,0,0,0,0,0,0,0,0,0,-2.3095,-2.3096,0,-2.3148,-2.3149,-2.3149,-2.31,-2.3098,-2.3096,-2.3094,-2.3149,-2.3152,-2.3156,0,0,0,0,0,0,0,0,0,0,0,0,0,-2.2952,-2.2955,-2.3095,-2.3096,-2.3097,-2.3148,-2.3149,-2.315,-2.31,-2.3098,-2.3096,-2.3093,-2.3148,-2.3152,-2.3156,0,0,0,0,0,0,0,0,0,0,0,0,0,-2.3011,-2.2956,-2.3095,-2.3078,-2.3077,-2.3148,-2.3149,-2.315,-2.3101,-2.3098,-2.3095,-2.3092,-2.3147,-2.3152,-2.3157,-2.3247,0,0,-2.3172,-2.3174,0,0,0,0,0,0,0,0,-2.3008,-2.3016,-2.308,-2.308,-2.3079,-2.3114,-2.3119,-2.3182,-2.3102,-2.3092,-2.3094,-2.3091,-2.314,-2.3145,-2.3162,-2.325,-2.3252,-2.3172,-2.3175,-2.3177,-2.3179,0,0,0,0,0,0,0,-2.3004,-2.3014,-2.3116,-2.3081,-2.308,-2.3068,-2.3073,-2.313,-2.3132,-2.3093,-2.3089,-2.3096,-2.3139,-2.3157,-2.3163,-2.3253,-2.3172,-2.3177,-2.318,-2.3182,-2.3417,-2.342,0,0,0,0,0,0,-2.3001,-2.301,-2.3115,-2.3118,-2.3035,-2.3073,-2.3079,-2.3106,-2.3131,-2.3132,-2.3098,-2.3094,-2.315,-2.3157,-2.3165,-2.3272,-2.3177,-2.3182,-2.3185,-2.3414,-2.3418,-2.3421,0,0,0,0,0,0,-2.2998,-2.3011,-2.3112,-2.3063,-2.3075,-2.3079,-2.311,-2.3109,-2.3127,-2.3136,-2.3136,-2.3117,-2.3148,-2.3158,-2.3227,-2.3273,-2.3184,-2.3189,-2.341,-2.3415,-2.342,-2.3487,0,0,0,0,0,0,-2.2994,-2.301,-2.3044,-2.3064,-2.3078,-2.3174,-2.3113,-2.3112,-2.3135,-2.3129,-2.3153,-2.3154,-2.3147,-2.322,-2.3232,-2.3278,-2.3193,-2.3406,-2.3412,-2.3418,-2.3481,-2.3494,-2.3505,0,0,0,0,0,-2.2989,-2.3062,-2.3046,-2.3059,-2.3121,-2.3176,-2.3184,-2.3174,-2.3139,-2.3174,-2.318,-2.3153,-2.3266,-2.3227,-2.324,-2.3289,-2.3403,-2.341,-2.3418,-2.3476,-2.3492,-2.3505,0,0,0,0,0,0,-2.3047,-2.3064,-2.3047,-2.3128,-2.3151,-2.3168,-2.3211,-2.3191,-2.3225,-2.3218,-2.3204,-2.321,-2.3283,-2.3293,-2.3249,-2.3378,-2.3329,-2.3339,-2.3369,-2.3384,-2.3396,-2.3391,-2.3197,0,0,0,0,0,-2.307,-2.3113,-2.3125,-2.3195,-2.3208,-2.3208,-2.3232,-2.3222,-2.3245,-2.3255,-2.3266,-2.329,-2.3331,-2.3358,-2.3396,-2.3482,-2.3487,-2.3523,-2.3535,-2.3544,-2.3554,-2.36,-2.3616,-2.3446,-2.3445,-2.3445,0,0,-2.3116,-2.313,-2.3159,-2.3207,-2.3224,-2.327,-2.3216,-2.3267,-2.33,-2.3262,-2.3328,-2.3337,-2.3363,-2.3441,-2.3476,-2.3452,-2.3602,-2.3554,-2.3562,-2.3565,-2.3609,-2.3625,-2.3639,-2.3451,-2.345,-2.3449,0,0,-2.3223,-2.3239,-2.3298,-2.3316,-2.3342,-2.3342,-2.3356,-2.3376,-2.3381,-2.3446,-2.3419,-2.3459,-2.353,-2.3549,-2.3568,-2.3683,-2.366,-2.3696,-2.3759,-2.3804,-2.3818,-2.3829,-2.387,-2.3885,-2.3705,-2.3705,-2.3705,0,-2.3277,-2.3344,-2.3332,-2.3384,-2.3406,-2.3374,-2.3435,-2.3453,-2.349,-2.3506,-2.3479,-2.3566,-2.3582,-2.3664,-2.3692,-2.3709,-2.3725,-2.3693,-2.3817,-2.3828,-2.3839,-2.3878,-2.3893,-2.371,-2.3709,-2.3709,-2.3708,0,-2.341,-2.3457,-2.3502,-2.3538,-2.3566,-2.3622,-2.3618,-2.3648,-2.3636,-2.3638,-2.3705,-2.3723,-2.3763,-2.3782,-2.3771,-2.3863,-2.3847,-2.3819,-2.3769,-2.386,-2.3896,-2.3911,-2.3715,-2.3714,-2.3713,-2.3712,0,0,-2.3555,-2.3583,-2.36,-2.3616,-2.3642,-2.3679,-2.3734,-2.3773,-2.3799,-2.3826,-2.3871,-2.3932,-2.3905,-2.3927,-2.3918,-2.3958,-2.4048,-2.3924,-2.3925,-2.3946,-2.415,-2.4171,-2.4188,-2.4033,-2.4035,-2.4038,-2.4147,0,-2.3663,-2.3758,-2.3748,-2.3838,-2.3881,-2.3851,-2.3899,-2.3921,-2.3925,-2.3962,-2.3966,-2.4009,-2.3971,-2.3984,-2.4022,-2.4029,-2.4088,-2.4021,-2.4075,-2.4077,-2.4069,-2.4207,-2.423,-2.4333,-2.4162,-2.4164,-2.4166,0,-2.3801,-2.3833,-2.3927,-2.3947,-2.3964,-2.4008,-2.4043,-2.4079,-2.4103,-2.4103,-2.4128,-2.4111,-2.4167,-2.4116,-2.4193,-2.4147,-2.4169,-2.4175,-2.4179,-2.4183,-2.4127,-2.4215,-2.4365,-2.4381,-2.4188,-2.4186,-2.4184,0,-2.3897,-2.3963,-2.4028,-2.4043,-2.4067,-2.4098,-2.411,-2.4131,-2.4155,-2.4186,-2.4202,-2.424,-2.426,-2.429,-2.4284,-2.4248,-2.4362,-2.4311,-2.4364,-2.4364,-2.4389,-2.4387,-2.4544,-2.4403,-2.4403,-2.4403,-2.4403,0,-2.4019,-2.4078,-2.4071,-2.4112,-2.4177,-2.4165,-2.423,-2.4238,-2.4257,-2.4298,-2.4275,-2.4314,-2.4304,-2.4343,-2.4339,-2.4403,-2.4413,-2.4414,-2.4412,-2.4416,-2.4416,-2.443,-2.4423,-2.4407,-2.4406,-2.4405,-2.4405,0,-2.4137,-2.4135,-2.4204,-2.4221,-2.4227,-2.4274,-2.4289,-2.4327,-2.4329,-2.4381,-2.4393,-2.4396,-2.4441,-2.4438,-2.4489,-2.4486,-2.4565,-2.4555,-2.4557,-2.4554,-2.4607,-2.4602,-2.4778,-2.4801,-2.4646,-2.4647,-2.4648,0,-2.4214,-2.4259,-2.4281,-2.4306,-2.432,-2.4362,-2.4386,-2.4377,-2.4404,-2.4434,-2.4468,-2.4511,-2.4544,-2.4617,-2.4624,-2.4663,-2.4653,-2.4712,-2.4659,-2.4661,-2.4654,-2.4651,-2.4655,-2.4723,-2.4724,-2.4726,-2.4727,0,-2.4352,-2.4349,-2.4385,-2.4421,-2.4451,-2.4479,-2.4505,-2.4527,-2.452,-2.4552,-2.4597,-2.4623,-2.4674,-2.4717,-2.4753,-2.4766,-2.4746,-2.4744,-2.4758,-2.4762,-2.4761,-2.4762,-2.4585,-2.474,-2.4739,-2.4738,-2.4737,-2.4736,-2.4452,-2.449,-2.4511,-2.4552,-2.457,-2.4595,-2.4631,-2.4637,-2.4675,-2.4715,-2.4708,-2.4758,-2.4781,-2.4828,-2.4844,-2.4884,-2.4863,-2.4883,-2.4889,-2.4894,-2.49,-2.4755,-2.4891,-2.489,-2.489,-2.489,-2.4889,0,-2.4588,-2.46,-2.4638,-2.4674,-2.4707,-2.4684,-2.4712,-2.474,-2.4785,-2.4808,-2.4841,-2.4893,-2.4934,-2.4944,-2.4983,-2.5013,-2.5005,-2.5024,-2.5022,-2.5025,-2.4916,-2.49,-2.503,-2.503,-2.503,-2.503,-2.503,-2.503,-2.4663,-2.4726,-2.4725,-2.4797,-2.4809,-2.4858,-2.4875,-2.4898,-2.4916,-2.4974,-2.5008,-2.5014,-2.5032,-2.5073,-2.5109,-2.5111,-2.5127,-2.515,-2.5148,-2.5046,-2.5032,-2.5019,-2.5003,-2.5153,-2.5153,-2.5253,-2.5254,-2.5255]},{"header":{"parameterUnit":"m.s-1","parameterCategory":1,"la1":30.2991,"la2":30.254,"lo1":-89.0895,"lo2":-89.0444,"dx":0.0017,"dy":0.0017,"nx":28,"ny":28,"refTime":"2023-01-27T15:00:00:Z","depth":0,"parameterNumber":3,"parameterNumberName":"V-component_of_WINDS"},"data":[0,0,0,0,0,0,0,0,0,0,0,0,0,0,0,0,0,0,0,0,0,0,0,0,0,0,0,0,0,0,0,0,0,0,0,0,0,0,0,0,0,0,0,0,0,0,0,0,0,0,0,0,0,0,0,0,0,0,2.7751,2.7751,0,2.7793,2.7793,2.7794,2.7769,2.7768,2.7766,2.7765,2.7805,2.7807,2.7809,0,0,0,0,0,0,0,0,0,0,0,0,0,2.7646,2.7648,2.7751,2.7751,2.7752,2.7793,2.7793,2.7794,2.7769,2.7768,2.7766,2.7765,2.7804,2.7807,2.781,0,0,0,0,0,0,0,0,0,0,0,0,0,2.769,2.7648,2.7751,2.7745,2.7744,2.7793,2.7793,2.7794,2.7769,2.7768,2.7766,2.7764,2.7804,2.7807,2.781,2.7866,0,0,2.782,2.7821,0,0,0,0,0,0,0,0,2.7687,2.7694,2.7745,2.7745,2.7745,2.7774,2.7771,2.7818,2.777,2.776,2.7765,2.7763,2.7796,2.78,2.7811,2.7867,2.7869,2.782,2.7822,2.7823,2.7824,0,0,0,0,0,0,0,2.7684,2.7692,2.7767,2.7746,2.7746,2.7738,2.7743,2.7779,2.7787,2.776,2.7759,2.7764,2.7796,2.7808,2.7812,2.787,2.782,2.7823,2.7825,2.7826,2.7971,2.7973,0,0,0,0,0,0,2.7682,2.7689,2.7766,2.7769,2.7711,2.7742,2.7747,2.7766,2.7787,2.7788,2.7766,2.7763,2.7804,2.7808,2.7813,2.7878,2.7823,2.7826,2.7828,2.7969,2.7972,2.7974,0,0,0,0,0,0,2.768,2.7689,2.7764,2.7728,2.7737,2.7745,2.7768,2.7768,2.7781,2.7791,2.7792,2.7778,2.7802,2.7809,2.7852,2.7879,2.7828,2.7831,2.7967,2.797,2.7973,2.8009,0,0,0,0,0,0,2.7677,2.7689,2.7711,2.7729,2.774,2.7804,2.777,2.777,2.7787,2.7784,2.7802,2.7803,2.7801,2.7848,2.7856,2.7883,2.7833,2.7965,2.7968,2.7972,2.8006,2.8013,2.8019,0,0,0,0,0,2.7673,2.7719,2.7712,2.7721,2.7768,2.7806,2.7811,2.7809,2.7789,2.7811,2.7817,2.7803,2.7876,2.7852,2.7861,2.789,2.7963,2.7967,2.7972,2.8003,2.8012,2.8019,0,0,0,0,0,0,2.7703,2.7722,2.7714,2.7767,2.7785,2.7801,2.7829,2.7819,2.7842,2.7838,2.7833,2.7838,2.7883,2.7891,2.7865,2.7944,2.7916,2.7922,2.7936,2.7945,2.7952,2.7948,2.7836,0,0,0,0,0,2.7716,2.7746,2.7761,2.7806,2.7816,2.7821,2.7837,2.7834,2.7852,2.7859,2.7868,2.7885,2.7912,2.7929,2.7954,2.8007,2.801,2.8031,2.8038,2.8043,2.8048,2.8075,2.8084,2.7988,2.7988,2.7988,0,0,2.7742,2.7756,2.7776,2.7812,2.7826,2.7856,2.7827,2.7861,2.7882,2.7864,2.7905,2.7913,2.7931,2.7979,2.8001,2.7987,2.8075,2.8049,2.8053,2.8055,2.808,2.8089,2.8097,2.7991,2.799,2.799,0,0,2.7806,2.7821,2.7859,2.7873,2.7894,2.7897,2.7906,2.7924,2.7929,2.7971,2.7957,2.7982,2.8028,2.8041,2.8054,2.8122,2.8109,2.813,2.8165,2.8191,2.8198,2.8205,2.8227,2.8235,2.8135,2.8135,2.8135,0,2.7836,2.7882,2.788,2.7914,2.793,2.7915,2.7953,2.7967,2.7995,2.8005,2.799,2.8046,2.8058,2.8108,2.8124,2.8136,2.8145,2.8127,2.8198,2.8204,2.821,2.8231,2.824,2.8138,2.8137,2.8137,2.8137,0,2.7917,2.7949,2.7977,2.8005,2.8024,2.806,2.8062,2.8081,2.8076,2.808,2.8122,2.8136,2.8162,2.8174,2.817,2.8223,2.8214,2.8199,2.817,2.8222,2.8241,2.825,2.8141,2.814,2.8139,2.8139,0,0,2.7999,2.8025,2.8036,2.8047,2.8069,2.8093,2.8127,2.8154,2.817,2.8189,2.8217,2.8256,2.8242,2.8256,2.8253,2.8276,2.8326,2.8257,2.8257,2.8268,2.8383,2.8393,2.8403,2.8318,2.832,2.8321,2.8381,0,2.8062,2.8124,2.8123,2.8179,2.8207,2.8194,2.8223,2.8239,2.8244,2.8267,2.8272,2.8299,2.8279,2.8287,2.831,2.8315,2.8349,2.8311,2.8342,2.8343,2.8336,2.8413,2.8425,2.848,2.8389,2.839,2.8391,0,2.8144,2.8167,2.8226,2.8242,2.8254,2.8281,2.8305,2.8328,2.8345,2.8347,2.8363,2.8355,2.8389,2.8361,2.8406,2.838,2.8393,2.8397,2.8399,2.84,2.8369,2.8415,2.8498,2.8506,2.8404,2.8403,2.8402,0,2.8196,2.8241,2.8282,2.8293,2.8313,2.8332,2.8341,2.8357,2.8372,2.8393,2.8402,2.8426,2.8439,2.8457,2.8456,2.8436,2.85,2.8473,2.8501,2.8501,2.8514,2.8513,2.8599,2.8525,2.8525,2.8525,2.8525,0,2.8266,2.8302,2.8305,2.833,2.837,2.8368,2.8407,2.8414,2.8427,2.8452,2.8442,2.8465,2.8463,2.8486,2.8486,2.8522,2.8528,2.8529,2.8528,2.8529,2.8528,2.8535,2.8531,2.8527,2.8527,2.8526,2.8526,0,2.833,2.8334,2.8377,2.8393,2.8398,2.8426,2.8439,2.8461,2.8465,2.8497,2.8504,2.8509,2.8536,2.8537,2.8567,2.8567,2.861,2.8606,2.8604,2.8603,2.863,2.8626,2.8722,2.8733,2.8655,2.8655,2.8656,0,2.8373,2.8401,2.8419,2.8436,2.8446,2.8472,2.8488,2.8487,2.8504,2.8525,2.8544,2.857,2.859,2.8633,2.8639,2.8662,2.8657,2.8688,2.866,2.8659,2.8654,2.8652,2.8654,2.8693,2.8694,2.8695,2.8696,0,2.8449,2.8449,2.8473,2.8497,2.8517,2.8536,2.8553,2.8567,2.8567,2.8586,2.8614,2.8629,2.866,2.8685,2.8707,2.8715,2.8705,2.8705,2.8712,2.8712,2.871,2.8709,2.8617,2.8702,2.8702,2.8701,2.8701,2.87,2.8502,2.8525,2.8542,2.8568,2.8581,2.8598,2.8619,2.8626,2.8649,2.8674,2.8672,2.8702,2.8716,2.8745,2.8755,2.8777,2.8766,2.8777,2.8779,2.8782,2.8783,2.8708,2.8781,2.8781,2.8781,2.8781,2.8781,0,2.8576,2.8586,2.861,2.8635,2.8655,2.8645,2.8663,2.8681,2.8707,2.8722,2.8742,2.8773,2.8797,2.8804,2.8827,2.8843,2.8839,2.8849,2.8847,2.8848,2.8793,2.8784,2.8852,2.8852,2.8852,2.8852,2.8852,2.8852,2.8616,2.8654,2.8656,2.87,2.8709,2.8739,2.875,2.8764,2.8776,2.881,2.883,2.8836,2.8847,2.8871,2.8891,2.8893,2.8901,2.8913,2.8912,2.886,2.8853,2.8846,2.8836,2.8915,2.8915,2.8965,2.8965,2.8966]}]]